Station: Tasman Island  

  Atmospheric Gas Attenuation - ITU Rec 676-11   ----------------- dB/100km -----------------
Date Time Temp RH % AH g/m3 Dew Point Wind Direction Speed kph Gust kph Barometer mB Rainfall Since 9am 24GHz 47GHz 76GHz 122GHz 134GHz 241GHz
01/09 07:30 11.5 54 5.58 2.5 26 39 1012.7 0 13.2 21.8 29.2 76.0 62.5 212.2
01/09 07:20 11.5 54 5.58 2.5 24 37 1012.8 0 13.2 21.8 29.2 76.0 62.5 212.2
01/09 07:10 11.6 52 5.41 2.1 20 35 1012.8 0 12.9 21.5 28.5 74.3 60.3 204.8
01/09 07:00 11.3 57 5.82 3.1 22 41 1012.9 0 13.8 22.2 30.1 78.6 65.6 223.1
01/09 06:50 11.7 54 5.65 2.7 22 35 1012.9 0 13.4 21.9 29.4 76.5 63.2 214.7
01/09 06:40 11.5 58 5.99 3.5 20 33 1012.9 0 14.1 22.4 30.7 80.1 67.5 229.8
01/09 06:30 11.9 56 5.93 3.4 22 37 1013.1 0 14.0 22.2 30.3 79.1 66.4 226.2
01/09 06:20 12 54 5.76 3 22 37 1013.3 0 13.6 22.0 29.7 77.3 64.3 218.7
01/09 06:10 11.9 57 6.04 3.7 24 37 1013.3 0 14.2 22.4 30.7 80.2 67.8 230.9
01/09 06:00 12.2 55 5.94 3.4 24 39 1013.4 0 14.0 22.2 30.3 78.9 66.3 225.8
01/09 05:50 12 57 6.08 3.8 24 39 1013.3 0 14.3 22.4 30.8 80.5 68.2 232.4
01/09 05:40 12 57 6.08 3.8 24 39 1013.6 0 14.3 22.5 30.9 80.5 68.2 232.4
01/09 05:30 12.1 58 6.22 4.1 24 41 1013.8 0 14.6 22.6 31.3 81.8 69.9 238.2
01/09 05:20 12.4 57 6.23 4.1 26 41 1013.9 0 14.6 22.6 31.3 81.6 69.7 237.8
01/09 05:10 12.4 57 6.23 4.1 30 44 1014.1 0 14.6 22.6 31.3 81.7 69.7 237.8
01/09 05:00 12.5 57 6.27 4.2 26 41 1014.3 0 14.7 22.6 31.4 82.0 70.1 239.3
01/09 04:50 12.8 56 6.27 4.3 22 35 1014.5 0 14.7 22.6 31.3 81.7 69.9 238.4
01/09 04:40 12.5 58 6.38 4.5 20 32 1014.7 0 14.9 22.8 31.8 83.1 71.5 244.1
01/09 04:30 12.5 58 6.38 4.5 22 32 1014.8 0 14.9 22.8 31.8 83.1 71.5 244.1
01/09 04:20 12.6 57 6.31 4.3 20 33 1015.1 0 14.8 22.7 31.5 82.3 70.6 240.9
01/09 04:10 12.6 57 6.31 4.3 19 28 1015.3 0 14.8 22.7 31.5 82.4 70.6 240.9
01/09 04:00 12.8 58 6.5 4.8 15 28 1015.5 0 15.2 23.0 32.2 84.1 72.8 248.6
01/09 03:50 12.5 57 6.27 4.2 15 26 1015.7 0 14.7 22.7 31.5 82.1 70.2 239.6
01/09 03:40 12.3 57 6.19 4 13 22 1015.7 0 14.5 22.6 31.2 81.5 69.4 236.7
01/09 03:30 12.2 58 6.26 4.2 15 22 1015.8 0 14.7 22.8 31.5 82.3 70.4 240.1
01/09 03:20 11.7 60 6.28 4.2 9 24 1016 0 14.7 22.9 31.8 83.1 71.1 242.5
01/09 03:10 10.8 63 6.23 4 6 22 1016.2 0 14.7 23.1 32.0 83.5 71.3 243.1
01/09 03:00 11.4 58 5.95 3.4 15 28 1016.4 0 14.0 22.5 30.7 80.1 67.3 229.1
01/09 02:50 11.1 58 5.84 3.2 15 26 1016.5 0 13.8 22.4 30.4 79.3 66.2 225.2
01/09 02:40 11 58 5.81 3.1 15 22 1016.9 0 13.8 22.4 30.4 79.1 65.9 224.2
01/09 02:30 10.9 60 5.97 3.5 17 24 1017.2 0 14.1 22.7 31.0 80.9 68.0 231.5
01/09 02:20 10.8 60 5.93 3.4 17 24 1017.4 0 14.0 22.7 30.9 80.6 67.6 230.1
01/09 02:10 11 59 5.91 3.3 13 24 1017.6 0 14.0 22.6 30.8 80.2 67.2 228.7
01/09 02:00 10.7 61 5.99 3.5 13 22 1017.9 0 14.1 22.8 31.2 81.3 68.5 233.1
01/09 01:50 10.5 63 6.11 3.8 9 24 1018.1 0 14.4 23.0 31.7 82.8 70.2 239.1
01/09 01:40 10.4 65 6.27 4.1 13 19 1018.2 0 14.8 23.3 32.4 84.5 72.3 246.5
01/09 01:30 9.8 70 6.5 4.6 7 19 1018.4 0 15.3 23.8 33.5 87.6 75.8 258.8
01/09 01:20 9.6 74 6.78 5.2 0 6 1018.4 0 15.9 24.3 34.7 90.8 79.7 272.2
01/09 01:10 10 73 6.86 5.4 4 15 1018.5 0 16.0 24.4 34.9 91.1 80.3 274.5
01/09 01:00 9.5 75 6.83 5.3 4 15 1018.6 0 16.0 24.5 35.0 91.4 80.4 274.9
01/09 00:50 9.6 77 7.06 5.8 0 0 1018.6 0 16.5 24.8 35.8 93.8 83.4 285.2
01/09 00:40 10 76 7.14 6 6 13 1018.9 0 16.6 24.8 36.0 94.2 84.0 287.5
01/09 00:30 10.2 76 7.23 6.2 0 13 1019.1 0 16.8 24.9 36.3 94.9 85.0 291.0
01/09 00:20 10.2 75 7.14 6 0 0 1019.3 0 16.6 24.8 35.9 94.0 83.8 286.9
01/09 00:10 10.5 73 7.08 5.9 2 13 1019.5 0 16.5 24.6 35.6 93.0 82.7 283.1
01/09 00:00 10.5 72 6.98 5.7 2 13 1019.6 0 16.3 24.5 35.2 91.9 81.4 278.5
31/08 23:50 10.2 72 6.85 5.4 0 0 1019.6 0 16.0 24.3 34.8 90.9 80.0 273.6
31/08 23:40 10.4 71 6.84 5.4 4 11 1019.8 0 16.0 24.3 34.7 90.6 79.7 272.5
31/08 23:30 10.6 69 6.74 5.2 0 0 1020 0 15.8 24.1 34.2 89.3 78.2 267.3
31/08 23:20 10.8 68 6.72 5.1 0 0 1020.2 0 15.7 24.0 34.0 88.9 77.8 265.8
31/08 23:10 10.9 68 6.77 5.2 0 0 1020.6 0 15.8 24.1 34.2 89.4 78.4 267.8
31/08 23:00 10.8 67 6.62 4.9 0 0 1020.8 0 15.5 23.8 33.7 87.9 76.5 261.4
31/08 22:50 11 67 6.71 5.1 0 0 1020.9 0 15.7 23.9 33.9 88.7 77.5 264.8
31/08 22:40 10.9 67 6.67 5 0 0 1021 0 15.6 23.9 33.8 88.4 77.1 263.4
31/08 22:30 11.1 66 6.65 5 0 0 1021.2 0 15.5 23.8 33.7 88.0 76.7 261.9
31/08 22:20 11.2 65 6.59 4.9 0 0 1021.4 0 15.4 23.7 33.4 87.3 75.8 258.9
31/08 22:10 11.4 64 6.57 4.8 0 0 1021.5 0 15.4 23.6 33.3 86.8 75.4 257.4
31/08 22:00 11.3 64 6.53 4.7 0 0 1021.5 0 15.3 23.6 33.1 86.5 75.0 255.9
31/08 21:50 11.3 64 6.53 4.7 0 0 1021.6 0 15.3 23.6 33.2 86.5 75.0 255.9
31/08 21:40 11.5 63 6.51 4.7 0 0 1021.7 0 15.2 23.5 33.0 86.1 74.5 254.4
31/08 21:30 11.4 63 6.47 4.6 0 0 1021.8 0 15.1 23.5 32.9 85.8 74.1 253.0
31/08 21:20 11.6 65 6.76 5.3 0 0 1021.8 0 15.8 23.9 33.9 88.6 77.6 265.3
31/08 21:10 11.4 63 6.47 4.6 0 0 1021.9 0 15.1 23.5 32.9 85.8 74.1 253.0
31/08 21:00 11.3 64 6.53 4.7 0 0 1021.8 0 15.3 23.6 33.2 86.6 75.0 256.0
31/08 20:50 11 67 6.71 5.1 0 0 1021.8 0 15.7 24.0 34.0 88.8 77.6 265.0
31/08 20:40 10.3 80 7.66 7 0 0 1021.9 0 17.7 25.7 38.1 99.7 90.8 311.4
31/08 20:30 10.7 81 7.96 7.6 0 0 1022.1 0 18.4 26.1 39.1 102.5 94.4 324.0
31/08 20:20 10.4 74 7.13 6 0 0 1022.1 0 16.6 24.8 35.9 93.9 83.7 286.3
31/08 20:10 10.7 85 8.35 8.3 2 13 1022.3 0 19.2 26.7 40.8 106.9 99.7 342.7
31/08 20:00 10.4 83 8 7.6 0 0 1022.4 0 18.5 26.3 39.5 103.4 95.3 327.2
31/08 19:50 10.8 83 8.21 8 4 11 1022.4 0 18.9 26.5 40.1 105.2 97.7 335.6
31/08 19:40 10.7 86 8.45 8.5 9 15 1022.5 0 19.4 26.9 41.2 108.0 101.1 347.6
31/08 19:30 10.8 86 8.5 8.6 7 15 1022.7 0 19.5 27.0 41.4 108.4 101.7 349.6
31/08 19:20 10.8 85 8.4 8.4 9 19 1022.7 0 19.3 26.8 40.9 107.3 100.3 344.8
31/08 19:10 10.9 84 8.36 8.3 11 17 1022.7 0 19.2 26.7 40.7 106.7 99.7 342.4
31/08 19:00 10.8 83 8.21 8 13 19 1022.7 0 18.9 26.5 40.1 105.2 97.7 335.7
31/08 18:50 10.8 81 8.01 7.7 15 20 1022.7 0 18.5 26.2 39.3 103.0 95.0 326.1
31/08 18:40 10.8 78 7.71 7.1 15 20 1022.7 0 17.8 25.7 38.1 99.7 91.0 312.0
31/08 18:30 11 77 7.71 7.1 15 20 1022.8 0 17.8 25.6 38.0 99.5 90.7 311.2
31/08 18:20 10.9 74 7.36 6.5 11 17 1022.8 0 17.1 25.1 36.6 95.8 86.2 295.3
31/08 18:10 10.9 75 7.46 6.6 7 15 1022.8 0 17.3 25.2 37.0 96.9 87.5 299.9
31/08 18:00 11.2 66 6.69 5.1 11 17 1022.9 0 15.6 23.9 33.9 88.4 77.2 263.7
31/08 17:50 11.2 67 6.79 5.3 7 19 1022.9 0 15.8 24.1 34.3 89.5 78.5 268.2
31/08 17:40 11.1 71 7.15 6 17 20 1022.9 0 16.6 24.7 35.7 93.4 83.2 284.9
31/08 17:30 11.3 80 8.16 8 17 22 1022.9 0 18.8 26.3 39.7 104.0 96.4 331.2
31/08 17:20 11.3 75 7.65 7 15 22 1022.9 0 17.7 25.4 37.6 98.5 89.6 307.2
31/08 17:10 11.4 68 6.98 5.7 13 22 1022.9 0 16.2 24.3 34.9 91.2 80.7 276.1
31/08 17:00 11.4 66 6.78 5.3 17 22 1022.9 0 15.8 24.0 34.1 89.1 78.1 267.1
31/08 16:50 11.2 67 6.79 5.3 17 22 1023 0 15.8 24.1 34.3 89.5 78.5 268.2
31/08 16:40 11.1 73 7.35 6.5 17 22 1023.1 0 17.0 25.0 36.5 95.5 85.9 294.2
31/08 16:30 11.1 76 7.66 7 17 20 1023.1 0 17.7 25.5 37.8 98.8 90.0 308.5
31/08 16:20 11.4 76 7.8 7.3 15 20 1023.1 0 18.0 25.7 38.2 100.0 91.5 313.9
31/08 16:10 11.4 76 7.8 7.3 15 20 1023.2 0 18.0 25.7 38.2 100.0 91.5 313.9
31/08 16:00 11.9 75 7.94 7.6 13 20 1023.3 0 18.3 25.8 38.5 100.9 92.8 318.5
31/08 15:50 12.4 81 8.85 9.2 13 19 1023.3 0 20.2 27.1 42.0 110.2 104.4 359.3
31/08 15:40 12.8 74 8.29 8.3 0 11 1023.4 0 19.0 26.1 39.5 103.5 96.4 331.1
31/08 15:30 13 69 7.83 7.5 0 0 1023.5 0 18.0 25.3 37.6 98.3 90.1 309.1
31/08 15:20 13.1 64 7.3 6.5 0 0 1023.6 0 16.8 24.4 35.4 92.7 83.1 284.7
31/08 15:10 13.6 66 7.77 7.4 0 0 1023.6 0 17.8 25.0 37.1 97.0 88.6 304.0
31/08 15:00 13.4 62 7.21 6.3 0 0 1023.7 0 16.6 24.2 35.0 91.4 81.6 279.6

Last Refresh: 01-Sep-2026 07:12:43

Bureau of Meteorology